Regional Weather Roundup
Issued by NWS

Home | Current Version | Previous Version | Graphics & Text | Print | Product List | Glossary On
Versions: 1 2 3 4 5 6 7 8 9 10 11 12 13 14 15 16 17 18 19 20 21 22 23 24 25 26 27 28 29 30 31 32 33 34 35 36 37 38 39 40 41 42 43 44 45 46 47 48 49 50
000
ASUS43 KMKX 231720
RWRWI

WISCONSIN REGIONAL WEATHER ROUNDUP
NATIONAL WEATHER SERVICE MILWAUKEE/SULLIVAN WI
1200 PM CDT WED JUL 23 2014

NOTE: "FAIR" INDICATES FEW OR NO CLOUDS BELOW 12,000 FEET WITH NO
SIGNIFICANT WEATHER AND/OR OBSTRUCTIONS TO VISIBILITY.

WIZ001-002-006>008-014>016-023>028-231800-
NORTHWEST WISCONSIN

CITY           SKY/WX    TMP DP  RH WIND       PRES   REMARKS
SUPERIOR ARPT  MOSUNNY   73  56  55 NE5       30.24S
ASHLAND        MOSUNNY   72  59  63 N7        30.25S
HAYWARD        MOSUNNY   74  52  46 N10       30.24F
SIREN          MOSUNNY   75  55  49 SE3       30.24S
RICE LAKE      MOSUNNY   74  53  46 N6        30.24F
LADYSMITH      MOSUNNY   73  55  52 W3        30.25F
EAU CLAIRE     MOSUNNY   79  54  41 VRB5      30.21F
MENOMONIE      MOSUNNY   78  50  36 NW8       30.22S
NEW RICHMOND   SUNNY     75  54  46 NW7       30.24S
OSCEOLA        SUNNY     75  57  53 N8        30.26S
$$

WIZ003>005-009-010-017-018-231800-
NORTH CENTRAL WISCONSIN

CITY           SKY/WX    TMP DP  RH WIND       PRES   REMARKS
WOODRUFF       PTSUNNY   72  55  55 N5        30.25S
RHINELANDER    CLOUDY    66  51  58 VRB6      30.25F
EAGLE RIVER    CLOUDY    64  49  57 CALM      30.25S
LAND O LAKES   CLOUDY    65  52  61 N9        30.26S
PHILLIPS       PTSUNNY   70  55  58 NW7       30.23F
TOMAHAWK       PTSUNNY   67  55  65 NE3       30.25S
MEDFORD        MOSUNNY   70  55  59 N5        30.24S
MERRILL        PTSUNNY   69  55  62 N5        30.23S
$$

WIZ029-030-035-036-043>047-231800-
CENTRAL WISCONSIN

CITY           SKY/WX    TMP DP  RH WIND       PRES   REMARKS
WAUSAU         MOSUNNY   73  54  51 VRB5      30.21F
MOSINEE        PTSUNNY   72  55  56 NW8       30.23F
MARSHFIELD     PTSUNNY   71  56  58 W5        30.22F
STEVENS POINT  CLOUDY    71  53  52 N5G16     30.22F
WAUPACA        PTSUNNY   76  50  39 N8        30.21F
WAUTOMA        SUNNY     76  53  44 N12       30.21F
WISC RAPIDS    MOSUNNY   75  55  49 N6        30.23F
CAMP DOUGLAS   MOSUNNY   75  59  57 N3        30.22F
$$

WIZ011>013-019>022-031-037>040-048>050-231800-
NORTHEAST WISCONSIN

CITY           SKY/WX    TMP DP  RH WIND       PRES   REMARKS
ANTIGO         SUNNY     68  51  54 NW9       30.24S
STURGEON BAY   SUNNY     66  50  55 N15G23    30.21S
GREEN BAY      SUNNY     74  52  46 NE16      30.20R
MANITOWOC      SUNNY     67  53  61 NE9       30.19R
APPLETON       PTSUNNY   70  50  49 NE13      30.21S
CLINTONVILLE   PTSUNNY   72  46  40 N7        30.20F
OSHKOSH        MOSUNNY   72  53  51 NE13      30.20R
$$

WIZ032>034-041-042-053>061-231800-
SOUTHWEST WISCONSIN

CITY           SKY/WX    TMP DP  RH WIND       PRES   REMARKS
LA CROSSE      MOSUNNY   77  57  50 VRB6      30.21F
SPARTA         PTSUNNY   74  54  48 NW5       30.22F
VIROQUA        PTSUNNY   72  57  58 N3        30.23F
BOSCOBEL       MOSUNNY   76  56  49 NW7       30.21F
PRAIRIE DU CHI MOSUNNY   76  53  44 NE9       30.21S
PLATTEVILLE    FAIR      74  55  51 N9G16     30.21F
$$

WIZ056-057-062-063-064-067-068-231800-
SOUTH CENTRAL WISCONSIN

CITY           SKY/WX    TMP DP  RH WIND       PRES   REMARKS
BARABOO/DELLS  PTSUNNY   73  53  50 N6        30.21F
LONE ROCK      MOSUNNY   81  58  45 NE8       30.20F HX  81
WATERTOWN      MOSUNNY   72  56  57 N9G16     30.19S
MADISON        PTSUNNY   76  56  49 N12G17    30.20S
MIDDLETON      PTSUNNY   76  52  43 N7        30.21F
MONROE         MOSUNNY   72  55  56 N12       30.20S
JANESVILLE     PTSUNNY   73  54  49 N14       30.18S
$$

WIZ051-052-058>065-066-070>072-231800-
SOUTHEAST WISCONSIN

CITY           SKY/WX    TMP DP  RH WIND       PRES   REMARKS
MILWAUKEE      MOSUNNY   67  55  65 NE14      30.19R
WAUKESHA       MOSUNNY   72  50  46 NE12      30.19F
MILWAUKEE/TIMM SUNNY     70  52  52 NE14      30.19S
RACINE         SUNNY     69  57  65 N15G23    30.20R
BURLINGTON     MOSUNNY   70  55  57 N9        30.18S
KENOSHA        SUNNY     70  55  59 N14G23    30.18S
FOND DU LAC    SUNNY     73  51  46 NE10      30.21S
SHEBOYGAN      SUNNY     66  54  65 E12       30.19R
WEST BEND      MOSUNNY   70  46  43 N13G20    30.18S
JUNEAU         SUNNY     71  47  42 N13       30.21S
$$

LSZ147-162-231800-
LAKE SUPERIOR

STATION/POSITION TIME  TEMP    WIND        PRES    WAVE
                       AIR SEA DIR/SP/G            HT/PER
                 (UTC) (F)     (DEG/KT/KT) (MB)    (FT/S)
$$

LMZ867-665-643>646-231800-
LAKE MICHIGAN

STATION/POSITION TIME  TEMP    WIND        PRES    WAVE
                       AIR SEA DIR/SP/G            HT/PER
                 (UTC) (F)     (DEG/KT/KT) (MB)    (FT/S)
$$

TC  - TEMPERATURE IN CELSIUS
VSB - VISIBILITY IN STATUTE MILES
WCI - WIND CHILL INDEX
HX  - HEAT INDEX



USA.gov is the U.S. government's official web portal to all federal, state and local government web resources and services.